SCP
0 0 0 0 0 0 0 0 0 0 0 0 0 0 0 0 0 0 0 0 0 0 0 0 0 0 0 0 0 0 0 0 0 0 0 0 0 0 0 0 0 0 0
0 0 0 0 0 0 0 0 0 0 0 0 0 0 0 0 0 0 0 0 0 0 0 0 0 0 0 0 0 -0 -0 -0 0 0 0 0 0 0 0 0 0 0 0
0 0 0 0 0 0 0 0 0 0 0 0 0 0 0 0 0 0 0 0 0 0 0 0 0 0 -0 -0 -0 -0 -0 -0 -0 0 0 0 0 0 0 0 0 0 0
0 0 0 0 0 0 0 0 0 0 0 0 0 0 0 0 0 0 0 0 0 0 0 0 0 0 -0 -0 -0 -0 -0 -0 -0 0 0 -0 0 0 0 0 0 0 0
0 0 0 0 0 0 0 0 0 0 0 0 0 0 0 0 0 0 0 0 0 0 0 0 0 0 0 -0 -0 -0 -0 -0 -0 0 0 -0 0 0 0 0 0 0 0
0 0 0 0 0 0 0 0 0 0 0 0 0 0 0 0 0 0 0 0 0 0 0 0 0 0 0 0 -0 -0 -0 0 0 0 0 0 0 0 0 0 0 0 0
0 0 0 0 0 0 0 0 0 0 0 0 0 0 0 0 0 0 0 0 0 0 0 0 0 0 0 0 -0 -0 0 0 0 0 0 0 0 0 0 0 0 0 0
0 0 0 0 0 0 0 0 0 0 0 0 0 0 0 0 0 0 0 0 0 0 0 0 0 0 0 0 0 0 0 0 0 0 0 0 0 0 0 0 0 0 0
0 0 0 0 0 0 0 0 0 0 0 0 0 0 0 0 0 0 0 0 0 0 0 0 0 0 0 0 0 0 0 0 0 0 0 0 0 0 0 0 0 0 0
0 0 0 0 0 0 0 0 0 0 0 0 0 0 0 0 0 0 0 0 0 0 0 0 0 0 0 0 0 0 0 0 0 0 0 0 0 0 0 0 0 0 0
0 0 0 0 0 0 0 0 0 0 0 0 0 0 0 0 0 0 0 0 0 0 0 0 0 0 0 0 0 0 0 0 0 0 0 0 0 0 0 0 0 0 0
0 0 0 0 0 0 0 0 0 0 0 0 0 0 0 0 0 0 0 0 0 0 0 0 0 0 0 0 0 0 0 0 0 0 0 0 0 0 0 0 0 0 0
0 0 0 0 0 0 0 0 0 0 0 0 0 0 0 0 0 0 0 0 0 0 0 0 0 0 0 0 0 0 0 0 0 0 0 0 0 0 0 0 0 0 0
0 0 0 0 0 0 0 0 0 0 0 0 0 0 0 0 0 0 0 0 0 0 0 0 0 0 0 0 0 0 0 0 0 0 0 0 0 0 0 0 0 0 0
1 1 0 0 0 0 0 0 0 0 0 0 0 0 0 0 0 0 0 0 0 0 0 0 0 0 0 0 0 0 0 0 0 0 0 0 0 0 0 0 0 0 0
1 1 0 0 0 0 0 0 0 0 0 0 0 0 0 0 0 0 0 0 0 0 0 0 0 0 0 0 0 0 0 0 0 0 0 0 0 0 0 0 0 0 0
1 0 0 0 0 0 0 0 0 0 0 0 0 0 0 0 0 0 0 0 0 0 0 0 0 0 0 0 0 0 0 0 0 0 0 0 0 0 0 0 0 1 1
0 0 0 0 0 0 0 0 0 0 0 0 0 0 0 0 0 0 0 0 0 0 0 0 0 0 0 0 0 0 0 0 0 0 0 0 0 0 0 0 0 0 0
0 0 0 0 0 0 0 0 0 0 0 0 0 0 0 0 0 0 0 0 0 0 0 0 0 0 0 0 0 0 0 0 0 0 0 0 0 0 0 0 0 0 0
0 0 0 0 0 0 0 0 0 0 0 0 0 0 0 0 0 0 0 0 0 0 0 0 0 0 0 0 0 0 0 0 0 0 0 0 0 0 0 0 0 0 0
0 0 0 0 0 0 0 0 0 0 0 0 0 0 0 0 0 0 0 0 0 0 0 0 0 0 0 0 0 0 0 0 0 0 0 0 0 0 0 0 0 0 0
0 0 0 0 0 0 0 0 0 0 0 0 0 0 0 0 0 0 0 0 0 0 0 0 0 0 0 0 0 0 0 0 0 0 0 0 0 0 0 0 0 0 0
0 0 0 0 0 0 0 0 0 0 0 0 0 0 0 0 0 0 0 0 0 0 0 0 0 0 0 0 0 0 0 0 0 0 0 0 0 0 0 0 0 0 0
0 0 0 0 0 0 0 0 0 0 0 0 0 0 0 0 0 0 0 0 0 0 0 0 0 0 0 0 0 0 0 0 0 0 0 0 0 0 0 0 0 0 0
0 0 0 0 0 0 0 0 0 0 0 0 0 0 0 0 0 0 0 0 0 0 0 0 0 0 0 0 0 0 0 0 0 0 0 0 0 0 0 0 0 0 0
0 0 0 0 0 0 0 0 0 0 0 0 0 0 0 0 0 0 0 0 0 0 0 0 0 0 0 0 0 0 0 0 0 0 0 0 0 0 0 0 0 0 0
Wind_Speed
7 6 13 16 16 16 16 16 16 16 16 16 16 16 16 16 15 15 14 13 13 13 12 12 11 11 11 11 10 10 10 9 9 10 11 12 13 15 16 17 16 12 18
11 9 14 15 16 16 16 15 15 15 16 16 16 15 15 15 14 14 13 12 12 12 12 11 11 10 10 9 9 9 9 8 8 9 11 11 13 14 15 16 16 11 17
13 10 12 15 15 15 15 15 15 15 15 15 15 15 14 14 13 13 12 11 11 11 11 10 10 9 9 8 8 8 7 7 7 8 9 5 7 12 15 16 17 17 16
13 9 11 15 15 15 15 15 14 15 15 15 14 14 13 13 12 12 11 11 10 10 10 9 9 8 8 7 7 7 6 6 5 6 4 3 5 12 15 16 16 16 16
11 9 12 17 16 16 15 15 15 15 15 15 14 13 13 12 11 11 10 10 10 9 9 8 8 7 6 6 6 5 5 5 5 5 5 4 4 11 15 15 15 15 15
11 9 12 18 17 17 16 15 15 15 15 14 13 12 12 11 10 10 9 9 9 8 8 7 7 6 5 4 4 4 5 6 5 4 5 5 4 11 14 14 14 14 14
11 8 11 18 17 17 17 16 16 15 14 13 12 11 10 9 9 9 8 8 8 8 7 7 6 6 4 3 2 3 4 5 4 4 4 4 5 11 12 13 14 13 13
13 10 11 17 17 17 16 16 15 14 13 12 11 10 9 8 7 7 7 7 8 7 7 6 6 6 5 3 1 1 3 4 5 4 4 4 8 11 12 12 12 13 13
12 10 8 9 12 15 15 15 14 13 12 11 9 8 7 7 6 6 6 6 7 7 7 7 6 6 5 4 3 2 2 2 3 2 5 4 9 12 14 13 12 13 13
10 9 8 7 7 7 8 13 12 11 10 9 8 7 6 5 5 6 6 6 7 7 8 8 7 7 6 6 5 5 4 1 2 1 2 5 11 13 14 14 13 13 13
9 7 7 7 6 6 6 8 9 9 8 7 5 5 3 1 1 2 5 7 7 7 8 8 7 7 7 6 7 7 5 1 1 2 3 9 14 15 15 15 14 14 13
9 8 7 7 7 6 5 5 3 3 3 3 2 2 1 1 1 1 2 5 6 5 6 6 7 6 5 2 4 6 2 2 2 2 4 11 14 15 16 15 15 14 14
9 8 7 7 6 5 4 4 2 2 3 3 3 3 3 3 2 3 1 1 1 2 1 2 2 2 2 2 2 2 3 2 1 2 4 11 13 15 16 16 16 15 14
9 8 7 7 7 6 5 4 4 3 3 3 4 5 4 3 3 2 2 1 1 0 0 0 0 1 2 2 3 3 3 2 2 2 3 11 13 14 16 16 16 16 15
10 8 8 8 8 6 5 4 5 4 4 4 4 4 5 4 3 3 2 2 1 1 0 0 0 1 1 2 2 2 2 3 2 3 2 9 12 14 15 16 17 17 17
10 8 7 8 7 7 6 5 4 4 4 4 4 4 5 4 3 3 3 3 2 1 1 0 0 0 0 0 1 1 2 2 2 2 3 6 13 14 15 16 16 17 17
9 8 7 8 7 7 6 5 4 4 4 4 3 4 5 4 4 3 3 3 3 2 2 2 2 2 2 1 1 2 1 2 2 3 3 4 6 14 17 16 16 16 17
9 8 7 9 7 7 5 5 4 4 5 4 3 3 5 5 5 4 4 3 3 3 3 2 2 2 2 2 2 2 2 2 3 3 3 4 4 6 11 16 16 16 17
9 8 7 7 7 6 5 4 4 4 4 3 3 3 4 4 5 4 3 3 4 4 3 3 3 2 2 3 2 2 2 2 3 4 4 4 5 5 5 10 15 16 18
8 7 7 6 6 6 4 4 3 4 3 2 3 3 4 3 4 4 4 4 5 4 4 3 3 3 2 2 3 3 3 3 3 3 5 4 4 5 6 6 6 10 17
8 8 6 6 5 4 3 3 3 2 2 2 2 3 4 4 4 4 3 4 4 4 4 4 3 4 3 3 3 4 4 3 2 2 2 2 3 3 4 5 4 4 5
8 8 7 7 6 5 3 3 3 2 2 2 2 2 3 3 3 4 4 3 3 3 5 5 4 2 3 3 2 2 4 5 4 3 3 2 2 2 2 4 4 5 4
9 9 9 8 7 6 5 3 3 3 3 2 2 1 2 3 3 3 4 3 3 3 3 3 3 3 2 3 2 2 2 2 4 4 4 4 5 3 2 2 2 3 4
10 9 8 8 7 6 5 4 4 3 3 2 2 2 2 2 2 4 4 4 3 2 2 2 2 2 2 2 2 2 1 2 0 4 4 4 5 4 4 3 2 2 3
11 9 8 8 7 6 6 6 6 4 3 2 2 2 1 1 2 3 4 4 3 2 2 2 2 2 1 1 0 1 2 2 2 1 3 5 5 4 4 4 3 3 2
9 9 8 8 7 7 7 7 7 7 5 4 2 2 1 1 1 3 4 4 3 3 2 2 1 1 0 0 0 0 1 0 0 0 1 3 4 4 4 3 3 3 3
Wind_Direction
146 152 142 137 134 131 128 125 121 118 116 115 113 112 111 110 109 109 108 107 105 103 101 99 96 94 94 93 91 90 90 92 97 104 109 112 116 118 118 118 117 116 116
142 143 135 134 134 132 130 128 127 125 123 122 121 120 119 117 117 116 115 113 110 108 105 102 99 97 95 93 91 88 85 84 89 99 106 109 112 116 119 118 117 121 120
132 131 129 130 133 133 132 132 131 130 128 127 126 125 125 124 123 122 121 118 115 112 110 108 104 101 98 93 89 85 79 73 79 96 100 96 108 115 120 120 120 121 121
127 124 126 125 128 131 130 131 131 130 129 129 129 130 130 129 129 127 125 124 121 118 116 114 110 106 102 95 86 76 68 58 60 98 114 112 113 120 122 122 123 123 122
121 121 126 124 125 127 127 126 128 129 130 130 131 132 133 133 133 131 130 130 128 126 125 122 118 114 107 98 86 69 54 43 51 85 110 109 109 127 127 126 126 125 125
121 122 128 126 126 126 125 125 126 127 129 131 132 134 136 137 137 137 136 136 136 135 135 133 130 127 120 107 87 61 40 34 56 98 113 118 121 133 132 131 130 129 128
128 127 130 129 127 127 127 126 127 128 130 132 134 136 138 140 142 143 145 145 147 147 147 147 145 146 144 132 98 51 33 33 76 117 127 129 134 137 138 136 135 135 134
134 131 131 131 130 129 129 130 131 132 134 136 138 140 143 145 148 152 156 158 161 161 164 165 164 164 170 177 187 5 20 38 75 124 141 145 147 143 143 142 141 141 140
135 133 131 133 132 134 135 135 136 137 138 139 142 145 149 156 164 172 176 177 176 177 176 178 182 184 190 199 220 256 306 26 84 117 157 157 158 154 152 151 150 149 148
136 139 137 133 132 133 136 140 141 141 141 142 145 149 157 170 183 191 194 195 194 191 189 190 195 197 202 210 224 246 265 319 106 151 165 178 172 165 161 161 159 158 156
141 144 141 139 140 139 142 144 141 141 141 139 138 140 138 149 204 210 205 202 206 205 204 203 203 204 207 218 228 243 256 209 145 172 180 195 184 175 170 169 168 167 167
147 149 147 144 144 148 145 128 128 121 112 107 100 89 77 65 32 48 192 200 207 213 216 216 216 215 212 221 240 246 240 225 211 193 197 202 194 184 178 176 175 175 175
146 142 141 139 138 133 117 122 110 98 95 91 90 85 73 58 36 35 37 13 252 231 231 244 236 212 192 199 225 233 229 220 203 207 209 203 201 194 186 183 181 181 183
132 123 120 122 119 115 115 114 109 103 94 85 75 75 74 63 46 38 35 20 9 324 220 213 205 219 223 217 217 229 233 225 197 204 219 203 201 198 194 191 188 187 188
124 119 117 117 114 112 107 110 105 105 103 98 83 74 78 70 50 34 26 27 12 4 4 328 232 233 225 232 236 233 239 244 217 200 213 205 202 205 202 199 196 195 194
127 126 121 115 115 112 109 110 110 108 104 95 89 87 80 74 59 41 29 22 11 355 356 14 8 311 305 292 288 270 250 254 245 210 201 204 205 210 211 209 205 203 201
134 130 128 121 116 111 111 112 112 113 108 106 101 85 76 71 64 51 34 19 1 6 25 32 29 39 28 17 343 312 281 264 259 238 209 204 208 217 215 213 211 210 208
140 138 134 126 119 115 114 113 112 109 109 116 108 88 76 72 69 53 40 19 10 24 32 41 41 43 30 20 345 316 308 295 279 262 231 215 207 218 222 221 217 215 215
144 138 128 126 127 124 118 111 105 103 111 125 117 103 90 80 69 63 51 27 28 36 31 35 46 48 24 355 321 314 319 300 282 277 261 234 215 214 215 225 225 221 220
137 136 138 136 135 126 112 98 85 85 104 128 129 124 110 90 74 70 61 40 39 40 27 26 34 30 24 347 333 337 309 295 291 274 266 256 230 220 216 220 224 230 228
140 143 149 145 149 135 122 119 118 126 137 147 157 138 121 104 89 83 71 50 45 46 31 24 30 25 9 4 22 347 332 331 329 309 290 273 260 244 219 214 213 215 228
158 159 160 163 162 156 150 153 157 151 154 155 150 139 140 125 119 112 95 76 57 49 36 35 44 38 7 23 46 31 352 344 341 353 358 7 327 290 240 219 208 210 216
173 174 173 176 172 168 157 127 95 74 65 70 100 157 179 160 146 129 121 105 77 72 59 53 59 64 23 360 39 90 77 313 313 327 352 9 1 352 321 293 240 225 220
188 184 180 179 177 173 159 144 142 140 143 170 173 187 210 194 175 154 142 126 107 93 81 67 76 76 73 20 2 33 145 191 289 323 327 346 353 357 349 340 317 282 245
191 189 186 181 180 176 165 154 142 140 152 154 139 153 214 263 219 177 158 145 137 124 127 103 81 64 91 110 22 358 10 25 72 113 315 329 336 334 335 325 319 307 278
193 190 183 178 183 179 169 162 156 155 158 152 157 177 239 287 241 182 165 159 162 159 162 165 155 118 156 190 203 166 139 113 336 105 271 302 309 306 316 321 327 316 293